Погода в Большой Глушице

Россия / Самарская область     52°23′33″N   50°28′18″E
темп.,
°C
ветер,
м/с
пор.,
м/с
влажн.,
%
обл.,
%
осадки,
мм/ч
давл.,
гПа
погр.,
м
5 марта, пт
пт501:00−1зюз81592100 0.1 1003682
04:00−1юз71592100 0.1 1002582
07:00−1юз81497100 0.3 1002569
10:000юз71399100 2.3 1001671
13:000з81398100 0.3 1002824
16:00+1з6109699 0.4 1005633
19:00−5с249694 0.3 100856
22:00−8сз239461 0.3 101221
6 марта, сб
сб601:00−8сз228895 0.0 101321
04:00−10з229393 0.0 101521
07:00−11зюз239744 0.0 101522
10:00−10з369356 0.0 1016149
13:00−7зсз249288 0.0 1016245
16:00−7сз249394 0.0 1016218
19:00−9с2293100 0.0 101521
22:00−9св3593100 0.0 1015120
7 марта, вс
вс701:00−12св3688100 0.0 1013115
04:00−12ссв3689100 0.0 1012119
07:00−15с348791 0.0 101248
10:00−14сз248750 0.0 101397
13:00−11зюз35900 0.0 1013249
16:00−10зюз48938 0.0 1013282
19:00−12юз499730 0.0 1012161
22:00−11ююз5139564 0.0 1012285
8 марта, пн
пн801:00−8ююз71491100 0.0 1007527
04:00−6ююз101794100 0.5 1004849
07:00−4зюз91494100 1.1 1004822
10:00−9зюз5108682 1.2 1006278
13:00−6юз598284 0.0 1007394
16:00−4ю599692 0.1 1005470
19:00−2ююз91696100 1.5 1001962
22:00−1юз111793100 2.5 9991089
9 марта, вт
вт901:00−8зюз101779100 1.1 1003785
04:00−11зюз8178769 1.1 1007628
07:00−13зюз7139389 0.0 1010337
10:00−12зюз6109379 0.0 1012308
13:00−10зюз589264 0.0 1013348
16:00−9зюз479379 0.0 1014373
19:00−12юз2397100 0.0 101323
22:00−13ююз2297100 0.0 101421